User: anonymous   Login
Location: Walnut Point State Park
(39.6958°N, 88.0345°W)
Time: 23:52:44
(UTC-05:00)
Language:

Iridium 75 - Orbit

View from above orbital plane
View from above orbital plane
View from above satellite
View from above satellite

Ground track
Ground track

The orbit data is extracted from the following two-line orbital elements,

1 25346U 98032E   15209.42665589  .00000200  00000-0  64280-4 0  9990
2 25346 086.4007 152.4448 0002358 084.4407 054.8848 14.34219125900806
Epoch (UTC): 28 July 2015 10:14:23
Eccentricity: 0.0002358
inclination: 86.4007°
perigee height: 776 km
apogee height: 779 km
right ascension of ascending node: 152.4448°
argument of perigee: 84.4407°
revolutions per day: 14.34219125
mean anomaly at epoch: 54.8848°
orbit number at epoch: 90080

The dashed part of the orbit path shows where the satellite is in the earth's shadow,  

DLR